Location: *
(47.5197°S, 176.5133°W)
Time: 01:44:56
(UTC+00:00)

Daily predictions for brighter satellites

Satellite Brightness Start Highest point End
(mag) Time Altitude Azimuth Time Altitude Azimuth Time Altitude Azimuth
STARLINK-1017 3.7 05:39:56 10° WSW 05:44:11 80° SSE 05:48:23 10° ENE
Lacrosse 5 rocket 1.6 05:40:40 10° SW 05:44:54 53° SSE 05:48:51 10° ENE
STARLINK-1196 3.8 05:42:22 10° NNW 05:45:17 33° NE 05:48:13 10° ESE
STARLINK-1186 3.8 05:42:48 10° NNW 05:45:43 34° NE 05:48:40 10° ESE
STARLINK-1014 3.6 05:41:55 10° WSW 05:46:00 81° SSE 05:50:04 10° ENE
Cosmos 1954 Rocket 4.1 05:40:36 10° SSW 05:46:01 78° ESE 05:51:23 10° NNE
ATLAS 3B R/B 4.2 05:39:28 10° W 05:46:09 34° SSW 05:52:49 10° SE
STARLINK-1011 4.3 05:42:07 10° WSW 05:46:10 43° S 05:50:13 10° E
STARLINK-1185 3.8 05:43:15 10° NNW 05:46:11 34° NE 05:49:07 10° ESE
STARLINK-1175 3.8 05:43:42 10° NNW 05:46:38 34° NE 05:49:35 10° ESE
STARLINK-1147 3.8 05:44:08 10° NNW 05:47:04 35° NE 05:50:01 10° ESE
STARLINK-1146 3.8 05:44:35 10° NNW 05:47:31 35° NE 05:50:28 10° ESE
STARLINK-1152 3.8 05:45:01 10° NNW 05:47:57 35° NE 05:50:55 10° ESE
STARLINK-1195 3.7 05:45:28 10° NNW 05:48:25 36° NE 05:51:24 10° ESE
STARLINK-1137 3.7 05:45:54 10° NNW 05:48:51 36° NE 05:51:50 10° ESE
Cosmos 44 3.8 05:44:06 10° SSW 05:49:14 47° SE 05:54:06 10° ENE
STARLINK-1142 3.7 05:46:22 10° NNW 05:49:19 36° NE 05:52:19 10° ESE
STARLINK-1127 3.7 05:46:48 10° NNW 05:49:45 36° NE 05:52:45 10° ESE
STARLINK-1184 3.7 05:47:14 10° NNW 05:50:12 37° NE 05:53:12 10° ESE
STARLINK-1193 3.7 05:47:41 10° NNW 05:50:40 37° NE 05:53:40 10° ESE
STARLINK-1194 3.7 05:48:07 10° NNW 05:51:06 37° NE 05:54:06 10° ESE
STARLINK-1036 4.3 05:47:07 10° WSW 05:51:11 44° SSE 05:55:14 10° E
Cosmos 1844 Rocket 2.8 05:45:47 10° NNW 05:51:25 83° WSW 05:57:05 10° SSE
Cosmos 2228 3.3 05:48:11 10° S 05:52:21 44° ESE 05:56:28 10° NNE
Gbstr 26 Del rocket 4.2 05:46:18 10° WNW 05:52:23 77° SSW 05:59:52 10° ESE
STARLINK-24 3.6 05:48:50 10° WSW 05:52:57 86° NNW 05:57:02 10° ENE
Cosmos 1626 4.0 05:51:55 10° ENE 05:53:34 12° E 05:55:13 10° ESE
ALOS 4.2 05:50:10 10° S 05:54:26 33° WSW 05:58:38 10° NW
STARLINK-1044 4.3 05:52:07 10° WSW 05:56:12 45° SSE 06:00:15 10° E
YAOGAN 6 3.3 05:54:21 10° SSE 05:57:35 31° E 06:00:48 10° NNE
STARLINK-1048 3.7 05:54:52 10° WSW 05:59:07 86° NNW 06:03:19 10° ENE
STARLINK-1150 3.7 05:56:15 10° NW 05:59:52 49° NE 06:03:32 10° ESE
Cosmos 1340 Rocket 3.3 05:56:27 10° S 06:00:24 40° ESE 06:04:19 10° NE
Okean-O 3.8 05:57:00 10° SE 06:00:38 23° E 06:04:12 10° NNE
SMAP 3.1 05:56:16 10° SSE 06:00:58 59° E 06:05:37 10° N
STARLINK-1047 4.2 05:57:06 10° WSW 06:01:12 46° SSE 06:05:02 11° E
STARLINK-1037 4.2 05:57:30 10° WSW 06:01:36 46° SSE 06:05:25 12° E
STARLINK-1049 3.7 05:59:51 10° WSW 06:04:05 81° NNW 06:08:18 10° ENE
Cosmos 1908 3.4 06:00:17 10° S 06:04:05 48° ESE 06:07:50 10° NNE
Cosmos 1726 2.3 06:01:41 10° SSW 06:05:30 80° W 06:09:16 10° N
Cosmos 1242 Rocket 2.7 06:02:45 10° NNW 06:06:28 82° WSW 06:10:16 10° S
Cosmos 1674 2.8 06:05:02 10° N 06:08:42 50° E 06:12:27 10° SSE
Kosmos-1783 3.5 06:02:28 10° NW 06:09:04 76° NE 06:11:16 10° SE
STARLINK-1051 3.8 06:04:51 10° WSW 06:09:05 76° NNW 06:13:17 10° NE
Cosmos 1606 Rocket 3.5 06:05:15 10° S 06:09:40 72° E 06:14:04 10° NNE
FALCON 9 R/B 4.2 06:06:15 10° NNW 06:10:45 14° N 06:13:37 10° NNE
STARLINK-1059 4.1 06:07:03 10° WSW 06:11:11 49° SSE 06:14:35 14° E
NOAA 12 4.3 06:05:53 10° SSE 06:11:11 53° E 06:16:25 10° N
STARLINK-1151 3.4 06:07:49 10° NW 06:11:22 56° NE 06:14:25 14° ESE
CZ-4B R/B 3.5 06:07:27 10° SSE 06:12:58 72° WSW 06:18:18 10° NNW
STARLINK-1133 3.4 06:09:31 10° NW 06:13:04 57° NE 06:16:04 14° ESE
SL-14 R/B 4.5 06:10:17 10° NE 06:13:16 21° E 06:16:17 10° SE
STARLINK-1170 3.5 06:09:46 10° NW 06:13:36 64° NNE 06:16:55 13° ESE
STARLINK-1139 3.4 06:11:14 10° NW 06:14:48 59° NE 06:17:44 15° ESE
CZ-2C R/B 3.9 06:10:41 10° NE 06:14:58 46° ESE 06:19:18 10° S
STARLINK-1057 4.1 06:12:03 10° WSW 06:16:12 51° SSE 06:19:23 16° E
Cosmos 1892 Rocket 3.8 06:12:12 10° NNE 06:16:27 47° E 06:20:44 10° SSE
STARLINK-1174 3.4 06:12:57 10° NW 06:16:32 61° NNE 06:19:24 15° ESE
STARLINK-1010 4.2 06:12:32 10° WSW 06:16:48 59° NW 06:21:01 10° NE
STARLINK-1028 4.0 06:14:49 10° WSW 06:19:01 67° NW 06:23:10 10° NE
CZ-2C R/B 3.2 06:14:15 10° NE 06:19:18 38° ESE 06:24:29 10° S
Cosmos 371 Rocket 3.6 06:15:03 10° N 06:19:44 46° ENE 06:24:28 10° SSE
Meteor 1-24 Rocket 4.1 06:14:43 10° NNE 06:19:47 40° E 06:25:04 10° SSE
STARLINK-1180 3.3 06:16:29 10° NW 06:20:04 65° NNE 06:22:49 16° ESE
STARLINK-1132 3.4 06:17:01 10° NW 06:20:46 70° NNE 06:23:41 16° ESE
Shenzhou-11 Module 3.0 06:18:27 10° WNW 06:20:48 28° N 06:22:12 17° NE
STARLINK-1034 4.0 06:17:02 10° WSW 06:21:11 53° SSE 06:24:09 18° E
STARLINK-1153 3.3 06:18:16 10° NW 06:21:53 67° NNE 06:24:34 17° ESE
STARLINK-81 4.0 06:18:35 10° WSW 06:22:39 62° NW 06:26:33 11° NE
STARLINK-1021 4.1 06:19:49 10° WSW 06:23:59 62° NW 06:27:57 11° NE
STARLINK-1177 3.3 06:20:20 10° NW 06:24:05 73° NNE 06:26:53 17° ESE
STARLINK-54 4.2 06:20:29 10° WSW 06:24:31 55° NW 06:28:28 10° NE
Cosmos 1939 Rocket 4.1 06:21:27 10° SE 06:24:45 22° E 06:27:58 10° NE
CZ-4 R/B 2.4 06:22:24 10° SE 06:25:53 26° E 06:29:16 10° NNE
STARLINK-77 4.1 06:21:55 10° WSW 06:25:58 59° NW 06:29:45 11° NE
STARLINK-1068 3.9 06:22:01 10° WSW 06:26:11 55° SSE 06:28:56 20° E
STARLINK-1167 3.3 06:23:15 10° NW 06:27:01 77° NNE 06:29:42 18° ESE
STARLINK-25 4.1 06:23:34 10° WSW 06:27:37 57° NW 06:31:20 12° NE
Cosmos 1953 4.3 06:24:12 10° SSW 06:27:53 33° W 06:31:31 10° NNW
Cosmos 2082 Rocket 2.7 06:22:43 10° SSW 06:28:07 41° SE 06:32:23 15° ENE
USA 81 4.0 06:22:53 10° N 06:28:10 68° E 06:33:31 10° S
Cosmos 1420 Rocket 4.1 06:23:05 10° NNW 06:28:19 82° WSW 06:33:38 10° SSE
STARLINK-1019 4.2 06:24:47 10° WSW 06:28:57 58° NW 06:32:44 12° NE
STARLINK-71 4.3 06:25:28 10° WSW 06:29:27 51° NW 06:33:16 11° NE
STARLINK-79 4.2 06:26:53 10° WSW 06:30:55 54° NW 06:34:31 12° NE
Lacrosse 5 1.9 06:26:28 10° NW 06:31:37 88° SW 06:36:25 12° SE
SL-23 DEB 4.1 06:28:48 10° WSW 06:31:58 47° NNW 06:34:33 14° NE
STARLINK-78 4.2 06:28:34 10° WSW 06:32:35 52° NW 06:36:08 13° NE
STARLINK-1168 3.2 06:30:01 10° WNW 06:33:39 81° NNE 06:35:54 22° ESE
STARLINK-1012 4.3 06:29:47 10° WSW 06:33:55 53° NW 06:37:31 13° NE
STARLINK-57 4.4 06:30:20 10° WSW 06:34:18 49° NW 06:37:52 12° NE
STARLINK-1149 3.4 06:30:55 10° WNW 06:34:48 86° NNE 06:37:20 21° ESE
MOS 1 Rocket 3.7 06:30:35 10° NE 06:35:21 43° ESE 06:39:54 10° S
STARLINK-1023 4.5 06:31:16 10° WSW 06:35:25 49° NW 06:39:09 12° NE
STARLINK-1164 3.2 06:31:51 10° WNW 06:35:31 83° NNE 06:37:43 23° ESE
STARLINK-49 4.3 06:31:53 10° WSW 06:35:53 50° NW 06:39:19 13° NE
Cosmos 1271 Rocket 4.1 06:32:16 10° NNW 06:36:02 44° WSW 06:39:54 10° S
Cosmos 1833 Rocket 2.7 06:30:27 10° SSW 06:36:10 68° ESE 06:41:49 10° NE
STARLINK-1060 3.8 06:31:59 10° WSW 06:36:11 60° SSE 06:38:31 25° E
STARLINK-1182 3.2 06:33:44 10° WNW 06:37:24 85° NNE 06:39:31 24° ESE
STARLINK-27 4.4 06:33:32 10° WSW 06:37:30 48° NW 06:40:53 13° NE
Cosmos 1850 Rocket 4.0 06:32:07 10° SSW 06:37:33 87° ESE 06:42:52 10° NNE
STARLINK-1163 3.3 06:33:53 10° WNW 06:37:41 89° NNE 06:39:59 23° ESE
STARLINK-74 4.4 06:35:12 10° WSW 06:39:10 47° NW 06:42:29 14° NE
STARLINK-39 4.5 06:36:51 10° WSW 06:40:48 46° NW 06:44:04 14° NNE
STARLINK-1030 3.8 06:36:58 10° WSW 06:41:11 63° SSE 06:43:18 27° E
STARLINK-1172 3.2 06:37:47 10° WNW 06:41:28 89° NNE 06:43:26 26° ESE
CENTAUR R/B 4.5 06:37:25 10° SW 06:42:24 20° S 06:46:54 10° SE
STARLINK-1145 3.2 06:39:44 10° WNW 06:43:25 88° SSW 06:45:18 27° ESE
Nadezhda 1 Rocket 4.1 06:38:36 10° S 06:45:00 86° W 06:51:26 10° N
STARLINK-1161 3.2 06:41:42 10° WNW 06:45:23 86° SSW 06:47:12 28° ESE
CZ-2D R/B 4.0 06:42:17 10° SSE 06:45:51 31° E 06:49:21 10° NNE
STARLINK-1020 3.7 06:41:57 10° WSW 06:46:10 67° SSE 06:48:04 31° E
STARLINK-1160 3.3 06:43:40 10° WNW 06:47:21 84° SSW 06:49:06 29° ESE
Meteor 2-5 Rocket 3.7 06:41:48 10° N 06:47:28 87° E 06:53:19 10° SSE
Okean O Rocket 3.8 06:45:29 10° S 06:49:18 28° WSW 06:53:02 10° WNW
Helios 1A Rocket 4.2 06:45:24 10° S 06:49:27 44° WSW 06:53:26 10° NW
Cosmos 1745 Rocket 4.0 06:44:45 10° N 06:50:56 87° W 06:57:13 10° S
STARLINK-1052 3.7 06:46:55 10° WSW 06:51:09 70° SSE 06:52:51 34° E
Cosmos 332 Rocket 3.7 06:47:00 10° N 06:51:51 68° ENE 06:56:44 10° SSE
CSL-04 Rocket 4.3 06:46:54 10° SSE 06:51:53 33° E 06:56:44 10° NNE
Cosmos 44 Rocket 4.2 06:47:34 10° SSW 06:52:17 35° SE 06:53:56 28° ESE
STARLINK-1063 4.5 06:48:25 10° WSW 06:52:26 41° S 06:54:08 27° ESE
COSMOS 2406 3.8 06:47:26 10° SSW 06:53:04 59° WNW 06:58:39 10° N
YAOGAN 1 3.0 06:49:13 10° SSE 06:53:24 39° E 06:57:30 10° NNE
Cosmos 2181 Rocket 4.3 06:47:18 10° S 06:53:38 48° ESE 06:59:25 12° NNE
Cosmos 1331 Rocket 4.2 06:52:06 10° N 06:57:07 47° ENE 07:02:13 10° SSE
STARLINK-1064 4.4 06:53:26 10° WSW 06:57:28 41° S 06:58:56 30° SE
IRS-1C Rocket 4.4 06:53:16 10° S 06:58:37 69° WSW 07:03:54 10° NNW
Exosat Rocket 3.9 06:54:37 10° SSW 06:59:55 60° ESE 07:04:28 21° NE
STARLINK-1033 3.6 06:56:53 10° WSW 07:01:08 78° SSE 07:02:25 43° ENE
STARLINK-1041 4.4 06:58:25 10° WSW 07:02:28 42° S 07:03:42 33° SE
Cosmos 1607 4.3 06:57:01 10° SW 07:03:13 65° WNW 07:09:16 10° NNE
Cosmos 2278 Rocket 2.1 06:58:13 10° NNW 07:03:55 86° ENE 07:09:42 10° SSE
Lacrosse 4 Rocket 3.4 07:02:26 10° WNW 07:05:58 26° SW 07:09:29 10° SSE
Okean 1-7 Rocket 4.1 07:02:23 10° NNW 07:06:53 63° WSW 07:11:30 10° S
BREEZE-M DEB (TANK) 2.7 07:04:02 10° NW 07:06:55 67° NNE 07:09:47 30° ESE
Genesis I 3.6 07:03:07 10° SSW 07:06:59 46° SE 07:07:16 45° ESE
STARLINK-1038 4.3 07:03:23 10° WSW 07:07:27 43° SSE 07:08:28 36° SE
STARLINK-1027 3.6 07:03:51 10° WSW 07:08:13 86° SSE 07:09:21 49° ENE
STARLINK-1129 3.8 07:04:26 10° NW 07:08:29 49° NE 07:08:47 47° NE
STARLINK-1179 3.5 07:06:59 10° W 07:10:06 49° SSW 07:10:28 46° S
STARLINK-1176 3.5 07:07:27 10° W 07:10:34 49° SSW 07:10:55 46° S
STARLINK-1024 3.5 07:06:50 10° WSW 07:11:06 87° SSE 07:11:59 55° ENE
STARLINK-1046 4.3 07:08:23 10° WSW 07:12:28 44° SSE 07:13:16 39° SE
Cosmos 2058 Rocket 4.0 07:08:30 10° SSW 07:12:53 50° W 07:17:14 10° NNW
STARLINK-1173 3.5 07:10:01 10° W 07:13:09 49° SSW 07:13:23 48° S
STARLINK-1134 3.8 07:09:24 10° NW 07:13:29 53° NE 07:13:37 52° NE
STARLINK-1136 3.5 07:10:29 10° W 07:13:36 49° SSW 07:13:49 48° S
USA 267 4.1 07:11:14 22° ESE 07:14:57 40° S 07:21:01 10° WSW
STARLINK-1031 3.7 07:11:34 10° WSW 07:15:56 84° NNW 07:16:47 57° NE
STARLINK-1035 3.5 07:11:50 10° WSW 07:16:05 88° NNW 07:16:46 62° ENE
Cosmos 1300 2.9 07:13:35 10° SSW 07:17:30 73° W 07:19:41 24° N
STARLINK-1039 4.2 07:13:24 10° WSW 07:17:30 46° SSE 07:18:04 43° SE
STARLINK-1135 3.7 07:14:18 10° NW 07:18:22 57° NNE 07:18:22 57° NNE
USA 229 DEB 3.8 07:11:47 10° NNW 07:19:24 78° NE 07:26:43 10° SE
USA 229 3.8 07:11:54 10° NNW 07:19:31 77° NE 07:26:51 10° SE
STARLINK-1183 3.7 07:17:01 10° W 07:20:02 48° SSW 07:20:02 48° SSW
STARLINK-1181 3.7 07:17:28 10° W 07:20:28 48° SSW 07:20:28 48° SSW
Meteor 2-1 Rocket 4.2 07:15:04 10° S 07:20:42 64° ESE 07:23:01 35° NE
STARLINK-1196 3.7 07:17:56 10° W 07:20:54 48° SSW 07:20:54 48° SSW
STARLINK-1032 3.5 07:16:48 10° WSW 07:21:02 83° NNW 07:21:33 68° NE
STARLINK-1186 3.7 07:18:22 10° W 07:21:20 47° SSW 07:21:20 47° SSW
STARLINK-1185 3.8 07:18:50 10° W 07:21:46 47° SSW 07:21:46 47° SSW
STARLINK-1175 3.8 07:19:17 10° W 07:22:12 47° SSW 07:22:12 47° SSW
STARLINK-1045 4.1 07:18:22 10° WSW 07:22:29 47° SSE 07:22:49 46° SSE
STARLINK-1162 3.7 07:18:22 10° NW 07:22:24 61° NNE 07:22:24 61° NNE
STARLINK-1147 3.8 07:19:43 10° W 07:22:38 46° SW 07:22:38 46° SW
STARLINK-1146 3.8 07:20:11 10° W 07:23:04 46° SW 07:23:04 46° SW
STARLINK-1141 3.7 07:19:15 10° NW 07:23:09 60° NNE 07:23:09 60° NNE
NOAA 11 4.1 07:18:10 10° SSE 07:23:43 88° ENE 07:29:12 10° NNW
STARLINK-1152 3.8 07:20:38 10° W 07:23:29 45° SW 07:23:29 45° SW
Lacrosse 5 rocket 2.9 07:20:14 10° WSW 07:23:53 30° NW 07:25:31 22° N
STARLINK-1195 3.9 07:21:06 10° W 07:23:56 45° SW 07:23:56 45° SW
Cosmos 304 Rocket 3.7 07:19:46 10° NNW 07:24:37 85° ENE 07:29:32 10° SSE
STARLINK-1137 3.9 07:21:32 10° W 07:24:21 45° SW 07:24:21 45° SW
STARLINK-1142 3.9 07:22:01 10° W 07:24:49 44° SW 07:24:49 44° SW
STARLINK-1127 3.9 07:22:27 10° W 07:25:13 44° SW 07:25:13 44° SW
NOAA 15 4.5 07:20:31 10° SSE 07:25:57 77° ENE 07:31:19 10° N
STARLINK-1184 4.0 07:22:54 10° W 07:25:40 43° SW 07:25:40 43° SW
STARLINK-1011 3.5 07:21:47 10° WSW 07:26:01 78° NNW 07:26:20 73° NNE
STARLINK-1193 4.0 07:23:22 10° W 07:26:06 43° SW 07:26:06 43° SW
STARLINK-1194 4.0 07:23:48 10° W 07:26:31 43° SW 07:26:31 43° SW
STARLINK-1157 3.7 07:23:19 10° NW 07:27:11 63° N 07:27:11 63° N
STARLINK-1050 4.1 07:23:24 10° WSW 07:27:31 48° SSE 07:27:39 48° SSE
Cosmos 1626 2.9 07:24:38 10° NNW 07:28:20 54° WSW 07:32:05 10° S
STARLINK-1140 3.8 07:24:11 10° NW 07:27:56 61° N 07:27:56 61° N
Cosmos 1110 Rocket 3.9 07:23:11 10° NNW 07:28:24 88° WSW 07:33:42 10° SSE
IRIDIUM 104 4.2 07:23:47 10° N 07:29:01 72° E 07:34:19 10° S
NOSS 3-1 (A) 4.0 07:20:34 10° NNW 07:29:11 67° NE 07:35:34 16° SE
Meteor 1-21 Rocket 4.5 07:30:57 48° E 07:30:57 48° E 07:36:12 10° SSE
STARLINK-1036 3.6 07:26:47 10° WSW 07:31:00 73° NNW 07:31:07 73° NNW
STARLINK-1159 3.8 07:28:15 10° NW 07:31:57 62° NNW 07:31:57 62° NNW
STARLINK-1055 4.1 07:28:22 10° WSW 07:32:25 50° SSE 07:32:25 50° SSE
STARLINK-1156 3.9 07:29:08 10° NW 07:32:43 59° NNW 07:32:43 59° NNW
STARLINK-1044 3.8 07:31:47 10° WSW 07:35:55 68° NW 07:35:55 68° NW
Alouette 2 Rocket 3.5 07:33:01 10° SSW 07:36:59 81° ESE 07:37:07 80° ENE
Okean-O 3.9 07:33:00 10° S 07:37:16 42° WSW 07:41:29 10° NW
STARLINK-1171 4.0 07:33:14 10° NW 07:36:45 59° NNW 07:36:45 59° NNW
STARLINK-1022 4.2 07:33:21 10° WSW 07:37:12 51° S 07:37:12 51° S
STARLINK-1150 4.2 07:34:04 10° W 07:37:31 46° SSW 07:37:31 46° SSW
IRIDIUM 114 4.2 07:32:53 10° N 07:38:09 86° E 07:43:30 10° S
STARLINK-1148 4.0 07:34:07 10° NW 07:37:31 56° NW 07:37:31 56° NW
Gbstr 26 Del rocket 4.5 07:33:40 10° WSW 07:40:22 63° S 07:43:06 40° ESE
STARLINK-1047 4.0 07:36:46 10° WSW 07:40:41 62° WNW 07:40:41 62° WNW
STARLINK-1037 4.0 07:37:09 10° WSW 07:41:04 61° WNW 07:41:04 61° WNW
Cosmos 1812 Rocket 3.5 07:36:48 10° S 07:41:23 84° W 07:41:32 82° NW
STARLINK-1155 4.1 07:38:12 10° NW 07:41:33 54° NW 07:41:33 54° NW
STARLINK-1042 4.3 07:38:20 10° WSW 07:41:58 50° S 07:41:58 50° S
STARLINK-1158 4.2 07:39:04 10° NW 07:42:17 51° NW 07:42:17 51° NW
Cosmos 1709 Rocket 4.4 07:41:01 10° NNW 07:47:07 61° WSW 07:53:24 10° S
Cosmos 1626 Rocket 4.1 07:42:49 10° NNW 07:47:08 58° WSW 07:51:32 10° S
IRIDIUM 103 4.4 07:42:04 10° N 07:47:20 80° W 07:52:41 10° S
STARLINK-1166 4.3 07:43:11 10° WNW 07:46:21 49° NW 07:46:21 49° NW
STARLINK-1056 4.4 07:43:19 10° WSW 07:46:45 48° SSW 07:46:45 48° SSW
STARLINK-1059 4.4 07:46:43 10° WSW 07:50:14 49° WNW 07:50:14 49° WNW
H-2A R/B 4.1 07:48:02 10° SSE 07:49:11 16° SSE 07:49:11 16° SSE
NOSS 3-1 (C) 4.2 07:47:14 10° NW 07:55:51 72° SW 08:02:40 13° SE
Cosmos 1602 Rocket 4.2 07:59:40 54° WSW 07:59:40 54° WSW 08:03:45 10° S
CZ-2C R/B 4.1 07:54:33 10° NNW 07:59:35 36° W 08:04:46 10° SSW
Cosmos 1939 Rocket 4.3 07:55:53 10° S 07:59:48 38° WSW 08:03:38 10° NW
CZ-4 R/B 3.2 07:57:14 10° S 08:00:56 32° WSW 08:04:32 10° NW
Cosmos 2074 Rocket 3.8 08:05:13 79° E 08:05:13 79° E 08:11:30 10° S
Cosmos 2082 Rocket 3.4 08:06:58 10° SW 08:12:09 37° WNW 08:14:17 27° NNW
Lacrosse 5 3.2 08:10:26 10° W 08:15:09 34° SSW 08:15:37 34° S
Meteor 2-10 Rocket 4.2 08:14:57 10° SSW 08:18:52 50° SW 08:18:52 50° SW
CENTAUR R/B 4.0 08:30:21 10° SSW 08:35:02 23° SSE 08:35:02 23° SSE
Cosmos 2278 Rocket 4.5 08:44:28 10° W 08:48:47 21° SW 08:53:07 10° S
USA 267 3.8 08:58:35 53° SSW 08:58:35 53° SSW 09:03:51 10° SW
ATLAS 3B R/B 4.3 09:25:57 10° SW 09:30:59 29° S 09:30:59 29° S
H-2A R/B 4.4 09:27:50 10° S 09:29:47 20° SSW 09:29:47 20° SSW
